Location: Bluff Heights
(33.7692°N, 118.1592°W)
Time: 03:39:35
(UTC+00:00)

Vanguard 1 Rocket - Pass Details

Date: 29 September 2021
Orbit: 650 x 4225 km, 34.3° (Epoch: 24 October)

Event Time Altitude Azimuth Distance (km) Brightness Sun altitude
Exits shadow 11:13:08 22° 198° (SSW) 4,601 10.6 -32.0°
Drops below altitude 10° 11:23:43 10° 167° (SSE) 6,509 11.7 -29.9°
Sets 11:31:38 0° 156° (SSE) 8,048 12.3 -28.4°
